TimeMDT,TemperatureF,Dew PointF,Humidity,Sea Level PressureIn,VisibilityMPH,Wind Direction,Wind SpeedMPH,Gust SpeedMPH,PrecipitationIn,Events,Conditions,WindDirDegrees,DateUTC
12:56 AM,37.9,28.9,70,29.82,-9999.0,Calm,Calm,-,N/A,,Unknown,0,2013-06-24 06:56:00
1:56 AM,36.0,28.9,76,29.81,-9999.0,Calm,Calm,-,N/A,,Unknown,0,2013-06-24 07:56:00
2:56 AM,34.0,28.9,82,29.82,-9999.0,Calm,Calm,-,N/A,,Unknown,0,2013-06-24 08:56:00
3:56 AM,33.1,28.9,85,29.80,-9999.0,Calm,Calm,-,N/A,,Unknown,0,2013-06-24 09:56:00
4:56 AM,33.1,28.9,85,29.79,-9999.0,NW,3.5,-,N/A,,Unknown,320,2013-06-24 10:56:00
5:56 AM,33.1,30.0,89,29.79,-9999.0,Calm,Calm,-,N/A,,Unknown,0,2013-06-24 11:56:00
6:56 AM,37.9,33.1,83,29.78,-9999.0,Calm,Calm,-,N/A,,Unknown,0,2013-06-24 12:56:00
7:56 AM,45.0,36.0,71,29.75,-9999.0,Calm,Calm,-,N/A,,Unknown,0,2013-06-24 13:56:00
8:56 AM,48.9,35.1,59,29.74,-9999.0,ESE,3.5,-,N/A,,Unknown,110,2013-06-24 14:56:00
9:56 AM,53.1,37.0,55,29.76,-9999.0,Calm,Calm,-,N/A,,Unknown,0,2013-06-24 15:56:00
10:56 AM,57.9,36.0,44,29.75,-9999.0,East,3.5,-,N/A,,Unknown,100,2013-06-24 16:56:00
11:56 AM,64.9,33.1,31,29.73,-9999.0,Variable,5.8,-,N/A,,Unknown,0,2013-06-24 17:56:00
12:56 PM,68.0,33.1,27,29.73,-9999.0,Variable,4.6,20.7,N/A,,Unknown,0,2013-06-24 18:56:00
1:56 PM,69.1,32.0,25,29.71,-9999.0,Variable,6.9,17.3,N/A,,Unknown,0,2013-06-24 19:56:00
2:56 PM,68.0,32.0,26,29.72,-9999.0,SSW,8.1,-,N/A,,Unknown,210,2013-06-24 20:56:00
3:56 PM,66.0,34.0,30,29.74,-9999.0,Variable,4.6,-,N/A,,Unknown,0,2013-06-24 21:56:00
4:56 PM,59.0,42.1,53,29.78,-9999.0,Calm,Calm,-,N/A,,Unknown,0,2013-06-24 22:56:00
5:56 PM,55.0,39.0,55,29.81,-9999.0,West,11.5,26.5,0.01,,Unknown,280,2013-06-24 23:56:00
6:56 PM,52.0,48.0,86,29.79,-9999.0,Calm,Calm,-,0.01,,Unknown,0,2013-06-25 00:56:00
7:56 PM,53.1,48.9,86,29.78,-9999.0,Calm,Calm,-,N/A,,Unknown,0,2013-06-25 01:56:00
8:56 PM,46.9,45.0,93,29.82,-9999.0,WNW,6.9,-,0.05,,Unknown,290,2013-06-25 02:56:00
9:56 PM,48.0,44.1,86,29.82,-9999.0,West,3.5,-,N/A,,Unknown,280,2013-06-25 03:56:00
10:56 PM,48.0,44.1,86,29.83,-9999.0,Variable,3.5,-,N/A,,Unknown,0,2013-06-25 04:56:00
11:56 PM,46.0,44.1,93,29.81,-9999.0,Calm,Calm,-,0.01,,Unknown,0,2013-06-25 05:56:00